sat.trackr.live / text

‹ back to catalog

GAOFEN-9 03

NORAD 45794 · 2020-039A

PAYLOAD ACTIVE UNKNOWN

§ Identity

Operator
Country
PRC
Launch date
2020-06-17
Launch site
JSC
Launch vehicle
Mass (kg)
RCS (m²)

External: N2YO · Heavens-Above · Gunter

§ Orbital elements

Epoch: 2026-05-25T04:05:16.806624Z

Period
94.00 min
Inclination
97.5355°
Eccentricity
0.0012321
Mean motion
15.31978204 rev/d
Perigee alt
461.5 km
Apogee alt
478.3 km
Semi-major
6,848.0 km
B*
2.3274e-4
RAAN
278.6467°
Arg perigee
158.2678°
Mean anomaly
201.9088°
Rev number
33,023

§ Raw data

GAOFEN-9 031 45794U 20039A   26145.17033341  .00007121  00000+0  23274-3 0  99942 45794  97.5355 278.6467 0012321 158.2678 201.9088 15.31978204330230

JSON: /api/v1/satellites/45794 · /tle

For live sub-satellite position, see the globe view (requires WebGL).

§ Visibility from observer

Set your observer location to see the next 7 days of passes ≥ 10°. The values pass through the URL so the page stays shareable.

No JS? Fill the form by hand. The geolocation button needs JavaScript.